| time (UTC) | temp C | wind direction | speed KPH | gust KPH | rain 1hr cm | rain 24hr cm | rain mn cm | humidity % | barometer mb |
| 20260906130837 | 18 | 22 | 0.0 | 1.6 | 0.00 | 0.00 | 0.00 | 99 | 1019.6 |
| 20260906130336 | 18 | 4 | 1.6 | 3.2 | 0.00 | 0.00 | 0.00 | 99 | 1019.8 |
| 20260906125835 | 18 | 26 | 0.0 | 3.2 | 0.00 | 0.00 | 0.00 | 99 | 1019.5 |
| 20260906125332 | 18 | 353 | 1.6 | 3.2 | 0.00 | 0.00 | 0.00 | 99 | 1019.5 |
| 20260906124827 | 18 | 356 | 3.2 | 3.2 | 0.00 | 0.00 | 0.00 | 99 | 1019.3 |
| 20260906124324 | 17 | 0 | 0.0 | 3.2 | 0.00 | 0.00 | 0.00 | 99 | 1019.3 |
| 20260906123822 | 17 | 17 | 0.0 | 3.2 | 0.00 | 0.00 | 0.00 | 99 | 1019.1 |
| 20260906123318 | 17 | 341 | 1.6 | 3.2 | 0.00 | 0.00 | 0.00 | 99 | 1019.0 |
| 20260906122817 | 17 | 343 | 1.6 | 3.2 | 0.00 | 0.00 | 0.00 | 99 | 1018.8 |
| 20260906122312 | 17 | 348 | 1.6 | 3.2 | 0.00 | 0.00 | 0.00 | 99 | 1018.7 |
| 20260906121809 | 17 | 330 | 0.0 | 1.6 | 0.00 | 0.00 | 0.00 | 99 | 1018.9 |
| 20260906121305 | 17 | 4 | 1.6 | 1.6 | 0.00 | 0.00 | 0.00 | 99 | 1018.9 |
| 20260906120801 | 16 | 8 | 0.0 | 3.2 | 0.00 | 0.00 | 0.00 | 99 | 1019.1 |
| 20260906120257 | 16 | 13 | 1.6 | 3.2 | 0.00 | 0.00 | 0.00 | 99 | 1019.0 |
| 20260906115753 | 16 | 0 | 0.0 | 3.2 | 0.00 | 0.00 | 0.00 | 99 | 1019.0 |
| 20260906115247 | 16 | 356 | 1.6 | 3.2 | 0.00 | 0.00 | 0.00 | 99 | 1018.9 |
| 20260906114747 | 16 | 0 | 0.0 | 3.2 | 0.00 | 0.00 | 0.00 | 99 | 1018.6 |
| 20260906114242 | 16 | 343 | 0.0 | 3.2 | 0.00 | 0.00 | 0.00 | 98 | 1018.4 |
| 20260906113738 | 16 | 0 | 0.0 | 3.2 | 0.00 | 0.00 | 0.00 | 98 | 1018.6 |
| 20260906113237 | 16 | 1 | 0.0 | 1.6 | 0.00 | 0.00 | 0.00 | 98 | 1018.4 |
| 20260906112736 | 16 | 359 | 0.0 | 1.6 | 0.00 | 0.00 | 0.00 | 98 | 1018.4 |
| 20260906112233 | 16 | 6 | 0.0 | 1.6 | 0.00 | 0.00 | 0.00 | 98 | 1018.2 |
| 20260906111733 | 16 | 336 | 0.0 | 1.6 | 0.00 | 0.00 | 0.00 | 98 | 1018.3 |
| 20260906111227 | 16 | 0 | 0.0 | 1.6 | 0.00 | 0.00 | 0.00 | 98 | 1018.3 |
| 20260906110722 | 16 | 352 | 0.0 | 3.2 | 0.00 | 0.00 | 0.00 | 98 | 1018.4 |
| 20260906110218 | 16 | 11 | 3.2 | 3.2 | 0.00 | 0.00 | 0.00 | 98 | 1018.2 |
| 20260906105717 | 16 | 0 | 1.6 | 3.2 | 0.00 | 0.00 | 0.00 | 98 | 1018.2 |
| 20260906105213 | 16 | 0 | 3.2 | 3.2 | 0.00 | 0.00 | 0.00 | 98 | 1018.1 |
| 20260906104713 | 16 | 359 | 3.2 | 3.2 | 0.00 | 0.00 | 0.00 | 98 | 1018.1 |
| 20260906104212 | 16 | 13 | 3.2 | 3.2 | 0.00 | 0.00 | 0.00 | 98 | 1018.1 |
| 20260906103709 | 16 | 8 | 3.2 | 3.2 | 0.00 | 0.00 | 0.00 | 98 | 1018.1 |
| 20260906103205 | 16 | 357 | 1.6 | 3.2 | 0.00 | 0.00 | 0.00 | 98 | 1018.0 |
| 20260906102700 | 16 | 9 | 0.0 | 3.2 | 0.00 | 0.00 | 0.00 | 98 | 1017.8 |
| 20260906102200 | 16 | 3 | 1.6 | 3.2 | 0.00 | 0.00 | 0.00 | 97 | 1018.2 |
| 20260906101700 | 16 | 13 | 1.6 | 1.6 | 0.00 | 0.00 | 0.00 | 97 | 1018.2 |
| 20260906101155 | 16 | 16 | 1.6 | 3.2 | 0.00 | 0.00 | 0.00 | 97 | 1018.1 |
| 20260906100651 | 16 | 351 | 1.6 | 3.2 | 0.00 | 0.00 | 0.00 | 97 | 1018.1 |
| 20260906100150 | 16 | 339 | 1.6 | 3.2 | 0.00 | 0.00 | 0.00 | 98 | 1018.3 |
| 20260906095645 | 16 | 351 | 0.0 | 3.2 | 0.00 | 0.00 | 0.00 | 97 | 1018.2 |
| 20260906095141 | 16 | 12 | 0.0 | 0.0 | 0.00 | 0.00 | 0.00 | 97 | 1018.2 |
| 20260906094639 | 16 | 359 | 1.6 | 3.2 | 0.00 | 0.00 | 0.00 | 97 | 1018.1 |
| 20260906094136 | 16 | 355 | 1.6 | 3.2 | 0.00 | 0.00 | 0.00 | 96 | 1017.9 |
| 20260906093632 | 17 | 347 | 0.0 | 3.2 | 0.00 | 0.00 | 0.00 | 96 | 1017.9 |
| 20260906093131 | 17 | 338 | 1.6 | 3.2 | 0.00 | 0.00 | 0.00 | 96 | 1018.1 |
| 20260906092627 | 17 | 343 | 3.2 | 3.2 | 0.00 | 0.00 | 0.00 | 96 | 1018.0 |
| 20260906092121 | 17 | 345 | 1.6 | 3.2 | 0.00 | 0.00 | 0.00 | 96 | 1018.0 |
| 20260906091618 | 17 | 1 | 3.2 | 3.2 | 0.00 | 0.00 | 0.00 | 95 | 1017.8 |
| 20260906091114 | 17 | 333 | 1.6 | 3.2 | 0.00 | 0.00 | 0.00 | 95 | 1017.8 |
| 20260906090615 | 17 | 334 | 0.0 | 3.2 | 0.00 | 0.00 | 0.00 | 95 | 1017.8 |
| 20260906090114 | 17 | 357 | 3.2 | 3.2 | 0.00 | 0.00 | 0.00 | 95 | 1017.7 |
| 20260906085614 | 17 | 345 | 3.2 | 3.2 | 0.00 | 0.00 | 0.00 | 96 | 1017.7 |
| 20260906085108 | 17 | 8 | 1.6 | 3.2 | 0.00 | 0.00 | 0.00 | 97 | 1018.0 |
| 20260906084603 | 17 | 0 | 1.6 | 3.2 | 0.00 | 0.00 | 0.00 | 98 | 1018.0 |
| 20260906084101 | 17 | 351 | 3.2 | 3.2 | 0.00 | 0.00 | 0.00 | 98 | 1018.0 |
| 20260906083557 | 17 | 346 | 1.6 | 3.2 | 0.00 | 0.00 | 0.00 | 98 | 1018.0 |
| 20260906083057 | 17 | 346 | 3.2 | 3.2 | 0.00 | 0.00 | 0.00 | 99 | 1017.8 |
| 20260906082552 | 17 | 337 | 1.6 | 3.2 | 0.00 | 0.00 | 0.00 | 98 | 1017.9 |
| 20260906082048 | 17 | 347 | 1.6 | 3.2 | 0.00 | 0.00 | 0.00 | 99 | 1017.9 |
| 20260906081544 | 17 | 349 | 1.6 | 3.2 | 0.00 | 0.00 | 0.00 | 98 | 1018.2 |
| 20260906081039 | 16 | 332 | 1.6 | 3.2 | 0.00 | 0.00 | 0.00 | 98 | 1017.7 |
| 20260906080536 | 16 | 11 | 0.0 | 3.2 | 0.00 | 0.00 | 0.00 | 97 | 1017.6 |
| 20260906080032 | 16 | 5 | 1.6 | 1.6 | 0.00 | 0.00 | 0.00 | 97 | 1017.6 |
| 20260906075531 | 16 | 3 | 1.6 | 1.6 | 0.00 | 0.00 | 0.00 | 98 | 1017.6 |
| 20260906075026 | 16 | 6 | 0.0 | 3.2 | 0.00 | 0.00 | 0.00 | 98 | 1017.8 |
| 20260906074521 | 16 | 358 | 1.6 | 3.2 | 0.00 | 0.00 | 0.00 | 98 | 1017.7 |
| 20260906074019 | 16 | 12 | 0.0 | 1.6 | 0.00 | 0.00 | 0.00 | 98 | 1017.8 |
| 20260906073514 | 16 | 6 | 0.0 | 1.6 | 0.00 | 0.00 | 0.00 | 98 | 1017.7 |
| 20260906073011 | 16 | 10 | 0.0 | 1.6 | 0.00 | 0.00 | 0.00 | 98 | 1017.8 |
| 20260906072505 | 16 | 339 | 1.6 | 1.6 | 0.00 | 0.00 | 0.00 | 97 | 1017.9 |
| 20260906072001 | 16 | 321 | 0.0 | 3.2 | 0.00 | 0.00 | 0.00 | 97 | 1017.8 |
| 20260906071457 | 16 | 351 | 1.6 | 3.2 | 0.00 | 0.00 | 0.00 | 96 | 1017.8 |
| 20260906070952 | 16 | 358 | 1.6 | 1.6 | 0.00 | 0.00 | 0.00 | 97 | 1017.9 |
| 20260906070448 | 16 | 314 | 1.6 | 1.6 | 0.00 | 0.00 | 0.00 | 96 | 1017.6 |
| 20260906065944 | 16 | 322 | 1.6 | 3.2 | 0.00 | 0.00 | 0.00 | 96 | 1017.9 |
| 20260906065443 | 17 | 330 | 0.0 | 3.2 | 0.00 | 0.00 | 0.00 | 97 | 1017.8 |
| 20260906064939 | 17 | 323 | 0.0 | 1.6 | 0.00 | 0.00 | 0.00 | 97 | 1017.8 |
| 20260906064436 | 17 | 339 | 1.6 | 3.2 | 0.00 | 0.00 | 0.00 | 97 | 1017.7 |
| 20260906063936 | 17 | 332 | 1.6 | 1.6 | 0.00 | 0.00 | 0.00 | 97 | 1018.1 |
| 20260906063431 | 17 | 335 | 1.6 | 3.2 | 0.00 | 0.00 | 0.00 | 97 | 1018.1 |
| 20260906062926 | 17 | 338 | 1.6 | 3.2 | 0.00 | 0.00 | 0.00 | 96 | 1018.1 |
| 20260906062427 | 17 | 327 | 0.0 | 3.2 | 0.00 | 0.00 | 0.00 | 96 | 1018.0 |
| 20260906061921 | 17 | 327 | 1.6 | 3.2 | 0.00 | 0.00 | 0.00 | 96 | 1017.7 |
| 20260906061418 | 17 | 350 | 1.6 | 3.2 | 0.00 | 0.00 | 0.00 | 96 | 1017.8 |
| 20260906060918 | 17 | 343 | 1.6 | 3.2 | 0.00 | 0.00 | 0.00 | 95 | 1017.8 |
| 20260906060415 | 17 | 334 | 0.0 | 3.2 | 0.00 | 0.00 | 0.00 | 95 | 1017.8 |
| 20260906055911 | 17 | 326 | 1.6 | 3.2 | 0.00 | 0.00 | 0.00 | 95 | 1017.8 |
| 20260906055407 | 17 | 320 | 1.6 | 3.2 | 0.00 | 0.00 | 0.00 | 95 | 1017.8 |
| 20260906054902 | 17 | 348 | 3.2 | 3.2 | 0.00 | 0.00 | 0.00 | 95 | 1017.9 |
| 20260906054356 | 17 | 314 | 1.6 | 3.2 | 0.00 | 0.00 | 0.00 | 94 | 1017.7 |
| 20260906053853 | 17 | 353 | 1.6 | 3.2 | 0.00 | 0.00 | 0.00 | 94 | 1017.7 |
| 20260906053348 | 17 | 345 | 0.0 | 3.2 | 0.00 | 0.00 | 0.00 | 93 | 1018.0 |
| 20260906052844 | 17 | 345 | 1.6 | 3.2 | 0.00 | 0.00 | 0.00 | 93 | 1017.9 |
| 20260906052340 | 17 | 339 | 3.2 | 3.2 | 0.00 | 0.00 | 0.00 | 93 | 1017.9 |
| 20260906051837 | 17 | 340 | 0.0 | 3.2 | 0.00 | 0.00 | 0.00 | 93 | 1017.8 |
| 20260906051336 | 17 | 344 | 1.6 | 3.2 | 0.00 | 0.00 | 0.00 | 92 | 1017.8 |
| 20260906050832 | 17 | 318 | 0.0 | 3.2 | 0.00 | 0.00 | 0.00 | 92 | 1017.6 |
| 20260906050327 | 18 | 329 | 1.6 | 1.6 | 0.00 | 0.00 | 0.00 | 91 | 1017.6 |
| 20260906045826 | 18 | 322 | 1.6 | 1.6 | 0.00 | 0.00 | 0.00 | 91 | 1017.6 |
| 20260906045320 | 18 | 343 | 0.0 | 1.6 | 0.00 | 0.00 | 0.00 | 90 | 1017.4 |
| 20260906044817 | 18 | 341 | 0.0 | 3.2 | 0.00 | 0.00 | 0.00 | 90 | 1017.5 |
| 20260906044317 | 18 | 350 | 3.2 | 3.2 | 0.00 | 0.00 | 0.00 | 90 | 1017.4 |
| 20260906043812 | 18 | 7 | 3.2 | 3.2 | 0.00 | 0.00 | 0.00 | 90 | 1017.5 |
| 20260906043309 | 18 | 341 | 0.0 | 3.2 | 0.00 | 0.00 | 0.00 | 90 | 1017.5 |
| 20260906042808 | 18 | 34 | 0.0 | 1.6 | 0.00 | 0.00 | 0.00 | 89 | 1017.5 |
| 20260906042308 | 18 | 15 | 0.0 | 1.6 | 0.00 | 0.00 | 0.00 | 88 | 1017.4 |
| 20260906041803 | 18 | 349 | 1.6 | 1.6 | 0.00 | 0.00 | 0.00 | 87 | 1017.1 |
| 20260906041258 | 18 | 9 | 3.2 | 3.2 | 0.00 | 0.00 | 0.00 | 87 | 1017.2 |
| 20260906040753 | 18 | 350 | 0.0 | 1.6 | 0.00 | 0.00 | 0.00 | 86 | 1017.3 |
| 20260906040248 | 18 | 3 | 0.0 | 1.6 | 0.00 | 0.00 | 0.00 | 85 | 1017.1 |
| 20260906035744 | 19 | 24 | 1.6 | 1.6 | 0.00 | 0.00 | 0.00 | 85 | 1017.1 |
| 20260906035240 | 19 | 55 | 0.0 | 1.6 | 0.00 | 0.00 | 0.00 | 84 | 1017.1 |
| 20260906034739 | 19 | 8 | 0.0 | 1.6 | 0.00 | 0.00 | 0.00 | 84 | 1017.1 |
| 20260906034234 | 19 | 35 | 0.0 | 1.6 | 0.00 | 0.00 | 0.00 | 84 | 1017.0 |
| 20260906033730 | 19 | 56 | 0.0 | 1.6 | 0.00 | 0.00 | 0.00 | 84 | 1017.0 |
| 20260906033230 | 20 | 50 | 0.0 | 3.2 | 0.00 | 0.00 | 0.00 | 84 | 1017.0 |
| 20260906032727 | 20 | 58 | 0.0 | 3.2 | 0.00 | 0.00 | 0.00 | 85 | 1017.0 |
| 20260906032226 | 20 | 28 | 1.6 | 3.2 | 0.00 | 0.00 | 0.00 | 86 | 1016.8 |
| 20260906031722 | 20 | 340 | 0.0 | 3.2 | 0.00 | 0.00 | 0.00 | 87 | 1017.2 |
| 20260906031217 | 20 | 116 | 1.6 | 3.2 | 0.00 | 0.00 | 0.00 | 88 | 1017.1 |
| 20260906030717 | 20 | 37 | 3.2 | 4.8 | 0.00 | 0.00 | 0.00 | 89 | 1017.0 |
| 20260906030212 | 20 | 325 | 0.0 | 3.2 | 0.00 | 0.00 | 0.00 | 89 | 1017.1 |
| 20260906025711 | 20 | 37 | 0.0 | 3.2 | 0.00 | 0.00 | 0.00 | 89 | 1016.9 |
| 20260906025206 | 20 | 52 | 1.6 | 3.2 | 0.00 | 0.00 | 0.00 | 89 | 1016.7 |
| 20260906024705 | 20 | 46 | 0.0 | 3.2 | 0.00 | 0.00 | 0.00 | 88 | 1016.7 |
| 20260906024204 | 20 | 331 | 0.0 | 1.6 | 0.00 | 0.00 | 0.00 | 88 | 1016.8 |
| 20260906023701 | 20 | 27 | 0.0 | 3.2 | 0.00 | 0.00 | 0.00 | 87 | 1016.8 |
| 20260906023201 | 20 | 48 | 0.0 | 1.6 | 0.00 | 0.00 | 0.00 | 87 | 1016.9 |
| 20260906022655 | 20 | 54 | 0.0 | 1.6 | 0.00 | 0.00 | 0.00 | 87 | 1016.7 |
| 20260906022151 | 20 | 95 | 1.6 | 1.6 | 0.00 | 0.00 | 0.00 | 87 | 1016.7 |
| 20260906021647 | 20 | 50 | 0.0 | 3.2 | 0.00 | 0.00 | 0.00 | 87 | 1016.7 |
| 20260906021146 | 20 | 66 | 0.0 | 1.6 | 0.00 | 0.00 | 0.00 | 86 | 1016.3 |
| 20260906020641 | 20 | 37 | 0.0 | 1.6 | 0.00 | 0.00 | 0.00 | 86 | 1016.4 |
| 20260906020136 | 20 | 79 | 0.0 | 3.2 | 0.00 | 0.00 | 0.00 | 86 | 1016.2 |
| 20260906015636 | 20 | 108 | 0.0 | 3.2 | 0.00 | 0.00 | 0.00 | 85 | 1016.2 |
| 20260906015135 | 20 | 16 | 0.0 | 4.8 | 0.00 | 0.00 | 0.00 | 85 | 1016.3 |
| 20260906014635 | 20 | 75 | 0.0 | 4.8 | 0.00 | 0.00 | 0.00 | 85 | 1016.3 |
| 20260906014131 | 20 | 44 | 0.0 | 3.2 | 0.00 | 0.00 | 0.00 | 85 | 1016.3 |
| 20260906013626 | 20 | 82 | 0.0 | 3.2 | 0.00 | 0.00 | 0.00 | 85 | 1016.2 |
| 20260906013122 | 20 | 94 | 1.6 | 3.2 | 0.00 | 0.00 | 0.00 | 85 | 1016.2 |
| 20260906012616 | 21 | 141 | 1.6 | 1.6 | 0.00 | 0.00 | 0.00 | 84 | 1016.2 |
| 20260906012116 | 21 | 110 | 0.0 | 1.6 | 0.00 | 0.00 | 0.00 | 84 | 1016.3 |
| 20260906011612 | 21 | 51 | 0.0 | 3.2 | 0.00 | 0.00 | 0.00 | 84 | 1016.2 |
| 20260906011113 | 21 | 78 | 0.0 | 3.2 | 0.00 | 0.00 | 0.00 | 84 | 1016.4 |
| 20260906010608 | 21 | 34 | 1.6 | 3.2 | 0.00 | 0.00 | 0.00 | 84 | 1016.5 |
| 20260906010104 | 21 | 51 | 0.0 | 3.2 | 0.00 | 0.00 | 0.00 | 84 | 1016.5 |
| 20260906005603 | 21 | 61 | 1.6 | 4.8 | 0.00 | 0.00 | 0.00 | 83 | 1016.5 |
| 20260906005103 | 21 | 130 | 1.6 | 3.2 | 0.00 | 0.00 | 0.00 | 84 | 1016.5 |
| 20260906004602 | 21 | 45 | 1.6 | 3.2 | 0.00 | 0.00 | 0.00 | 84 | 1016.7 |
| 20260906004057 | 21 | 13 | 3.2 | 4.8 | 0.00 | 0.00 | 0.00 | 84 | 1016.6 |
| 20260906003552 | 21 | 354 | 0.0 | 3.2 | 0.00 | 0.00 | 0.00 | 83 | 1016.5 |
| 20260906003048 | 21 | 222 | 3.2 | 3.2 | 0.00 | 0.00 | 0.00 | 83 | 1016.4 |
| 20260906002548 | 21 | 36 | 1.6 | 3.2 | 0.00 | 0.00 | 0.00 | 81 | 1016.5 |
| 20260906002043 | 22 | 325 | 1.6 | 1.6 | 0.00 | 0.00 | 0.00 | 81 | 1016.5 |
| 20260906001539 | 22 | 352 | 0.0 | 3.2 | 0.00 | 0.00 | 0.00 | 81 | 1016.6 |
| 20260906001039 | 22 | 205 | 0.0 | 3.2 | 0.00 | 0.00 | 0.00 | 81 | 1016.7 |
| 20260906000535 | 22 | 72 | 3.2 | 3.2 | 0.00 | 0.00 | 0.00 | 79 | 1016.5 |
| 20260906000030 | 22 | 15 | 3.2 | 3.2 | 0.00 | 0.00 | 0.00 | 79 | 1016.5 |
| 20260905235529 | 22 | 42 | 0.0 | 3.2 | 0.00 | 0.00 | 0.00 | 78 | 1016.3 |
| 20260905235025 | 22 | 59 | 0.0 | 4.8 | 0.00 | 0.00 | 0.00 | 76 | 1016.3 |
| 20260905234521 | 23 | 9 | 0.0 | 6.4 | 0.00 | 0.00 | 0.00 | 75 | 1016.1 |
| 20260905234021 | 23 | 32 | 3.2 | 3.2 | 0.00 | 0.00 | 0.00 | 74 | 1016.1 |
| 20260905233515 | 23 | 74 | 0.0 | 6.4 | 0.00 | 0.00 | 0.00 | 74 | 1016.0 |
| 20260905233015 | 24 | 26 | 3.2 | 3.2 | 0.00 | 0.00 | 0.00 | 73 | 1016.2 |
| 20260905232510 | 24 | 57 | 0.0 | 3.2 | 0.00 | 0.00 | 0.00 | 72 | 1016.3 |
| 20260905232006 | 25 | 52 | 6.4 | 6.4 | 0.00 | 0.00 | 0.00 | 71 | 1016.3 |
| 20260905231501 | 25 | 31 | 0.0 | 3.2 | 0.00 | 0.00 | 0.00 | 71 | 1016.5 |
| 20260905230958 | 25 | 17 | 1.6 | 3.2 | 0.00 | 0.00 | 0.00 | 71 | 1016.4 |
| 20260905230456 | 25 | 41 | 1.6 | 3.2 | 0.00 | 0.00 | 0.00 | 71 | 1016.4 |
| 20260905225954 | 26 | 27 | 1.6 | 4.8 | 0.00 | 0.00 | 0.00 | 69 | 1016.3 |
| 20260905225449 | 26 | 27 | 0.0 | 3.2 | 0.00 | 0.00 | 0.00 | 69 | 1016.3 |
| 20260905224945 | 26 | 9 | 1.6 | 3.2 | 0.00 | 0.00 | 0.00 | 69 | 1016.1 |
| 20260905224440 | 25 | 104 | 1.6 | 3.2 | 0.00 | 0.00 | 0.00 | 69 | 1016.1 |
| 20260905223939 | 25 | 55 | 3.2 | 3.2 | 0.00 | 0.00 | 0.00 | 69 | 1016.2 |
| 20260905223437 | 26 | 112 | 0.0 | 1.6 | 0.00 | 0.00 | 0.00 | 69 | 1016.2 |
| 20260905222932 | 25 | 20 | 0.0 | 4.8 | 0.00 | 0.00 | 0.00 | 70 | 1015.7 |
| 20260905222432 | 25 | 29 | 0.0 | 4.8 | 0.00 | 0.00 | 0.00 | 69 | 1015.7 |
| 20260905221927 | 25 | 54 | 0.0 | 3.2 | 0.00 | 0.00 | 0.00 | 71 | 1015.7 |
| 20260905221424 | 25 | 48 | 3.2 | 8.0 | 0.00 | 0.00 | 0.00 | 71 | 1015.6 |
| 20260905220920 | 25 | 89 | 0.0 | 4.8 | 0.00 | 0.00 | 0.00 | 72 | 1015.7 |
| 20260905220416 | 25 | 99 | 1.6 | 4.8 | 0.00 | 0.00 | 0.00 | 71 | 1015.7 |
| 20260905215914 | 25 | 109 | 4.8 | 6.4 | 0.00 | 0.00 | 0.00 | 71 | 1015.9 |
| 20260905215410 | 25 | 54 | 1.6 | 4.8 | 0.00 | 0.00 | 0.00 | 74 | 1015.7 |
| 20260905214907 | 25 | 332 | 1.6 | 4.8 | 0.00 | 0.00 | 0.00 | 73 | 1015.7 |
| 20260905214402 | 25 | 328 | 1.6 | 3.2 | 0.00 | 0.00 | 0.00 | 72 | 1015.4 |
| 20260905213856 | 25 | 347 | 3.2 | 4.8 | 0.00 | 0.00 | 0.00 | 71 | 1015.6 |
| 20260905213353 | 26 | 43 | 3.2 | 6.4 | 0.00 | 0.00 | 0.00 | 70 | 1015.5 |
| 20260905212853 | 26 | 7 | 0.0 | 4.8 | 0.00 | 0.00 | 0.00 | 68 | 1015.7 |
| 20260905212348 | 26 | 346 | 0.0 | 3.2 | 0.00 | 0.00 | 0.00 | 71 | 1015.7 |
| 20260905211847 | 26 | 8 | 3.2 | 4.8 | 0.00 | 0.00 | 0.00 | 72 | 1015.5 |
| 20260905211343 | 25 | 31 | 0.0 | 3.2 | 0.00 | 0.00 | 0.00 | 73 | 1015.6 |
| 20260905210840 | 25 | 348 | 0.0 | 4.8 | 0.00 | 0.00 | 0.00 | 73 | 1015.4 |
| 20260905210340 | 26 | 39 | 4.8 | 11.3 | 0.00 | 0.00 | 0.00 | 71 | 1015.3 |
| 20260905205838 | 26 | 33 | 0.0 | 8.0 | 0.00 | 0.00 | 0.00 | 72 | 1015.4 |
| 20260905205333 | 25 | 62 | 0.0 | 3.2 | 0.00 | 0.00 | 0.00 | 74 | 1015.6 |
| 20260905204832 | 25 | 27 | 0.0 | 3.2 | 0.00 | 0.00 | 0.00 | 73 | 1015.4 |
| 20260905204329 | 26 | 24 | 3.2 | 9.7 | 0.00 | 0.00 | 0.00 | 71 | 1015.5 |
| 20260905203827 | 26 | 15 | 3.2 | 6.4 | 0.00 | 0.00 | 0.00 | 72 | 1015.6 |
| 20260905203323 | 26 | 22 | 1.6 | 6.4 | 0.00 | 0.00 | 0.00 | 71 | 1015.5 |
| 20260905202819 | 26 | 7 | 3.2 | 4.8 | 0.00 | 0.00 | 0.00 | 72 | 1015.9 |
| 20260905202313 | 27 | 25 | 3.2 | 9.7 | 0.00 | 0.00 | 0.00 | 69 | 1015.5 |
| 20260905201809 | 26 | 315 | 0.0 | 3.2 | 0.00 | 0.00 | 0.00 | 72 | 1015.6 |
| 20260905201304 | 27 | 17 | 3.2 | 4.8 | 0.00 | 0.00 | 0.00 | 68 | 1015.5 |
| 20260905200759 | 27 | 19 | 1.6 | 3.2 | 0.00 | 0.00 | 0.00 | 70 | 1015.5 |
| 20260905200255 | 26 | 97 | 0.0 | 6.4 | 0.00 | 0.00 | 0.00 | 73 | 1015.5 |
| 20260905195752 | 26 | 36 | 1.6 | 3.2 | 0.00 | 0.00 | 0.00 | 73 | 1015.4 |
| 20260905195248 | 26 | 19 | 3.2 | 3.2 | 0.00 | 0.00 | 0.00 | 73 | 1015.3 |
| 20260905194743 | 26 | 15 | 0.0 | 4.8 | 0.00 | 0.00 | 0.00 | 70 | 1015.6 |
| 20260905194243 | 26 | 339 | 0.0 | 4.8 | 0.00 | 0.00 | 0.00 | 71 | 1015.6 |
| 20260905193742 | 27 | 6 | 3.2 | 6.4 | 0.00 | 0.00 | 0.00 | 69 | 1015.5 |
| 20260905193237 | 26 | 4 | 0.0 | 3.2 | 0.00 | 0.00 | 0.00 | 73 | 1015.4 |
| 20260905192733 | 26 | 10 | 0.0 | 3.2 | 0.00 | 0.00 | 0.00 | 73 | 1015.5 |
| 20260905192229 | 26 | 19 | 3.2 | 3.2 | 0.00 | 0.00 | 0.00 | 71 | 1015.6 |
| 20260905191728 | 27 | 358 | 3.2 | 3.2 | 0.00 | 0.00 | 0.00 | 70 | 1015.7 |
| 20260905191226 | 27 | 7 | 0.0 | 6.4 | 0.00 | 0.00 | 0.00 | 69 | 1015.5 |
| 20260905190726 | 27 | 119 | 0.0 | 3.2 | 0.00 | 0.00 | 0.00 | 70 | 1015.5 |
| 20260905190224 | 26 | 19 | 0.0 | 4.8 | 0.00 | 0.00 | 0.00 | 70 | 1015.3 |
| 20260905185724 | 26 | 31 | 3.2 | 3.2 | 0.00 | 0.00 | 0.00 | 71 | 1015.5 |
| 20260905185218 | 26 | 0 | 0.0 | 4.8 | 0.00 | 0.00 | 0.00 | 68 | 1015.6 |
| 20260905184713 | 27 | 359 | 0.0 | 3.2 | 0.00 | 0.00 | 0.00 | 71 | 1015.6 |
| 20260905184212 | 26 | 351 | 3.2 | 4.8 | 0.00 | 0.00 | 0.00 | 70 | 1015.7 |
| 20260905183712 | 26 | 11 | 3.2 | 4.8 | 0.00 | 0.00 | 0.00 | 69 | 1015.9 |
| 20260905183207 | 27 | 342 | 3.2 | 4.8 | 0.00 | 0.00 | 0.00 | 69 | 1015.7 |
| 20260905182706 | 27 | 26 | 3.2 | 4.8 | 0.00 | 0.00 | 0.00 | 69 | 1015.5 |
| 20260905182206 | 27 | 354 | 1.6 | 6.4 | 0.00 | 0.00 | 0.00 | 70 | 1015.6 |
| 20260905181702 | 27 | 31 | 3.2 | 4.8 | 0.00 | 0.00 | 0.00 | 72 | 1015.7 |
| 20260905181200 | 27 | 15 | 0.0 | 3.2 | 0.00 | 0.00 | 0.00 | 73 | 1015.6 |
| 20260905180655 | 26 | 348 | 0.0 | 4.8 | 0.00 | 0.00 | 0.00 | 74 | 1015.9 |
| 20260905180151 | 27 | 31 | 1.6 | 4.8 | 0.00 | 0.00 | 0.00 | 74 | 1016.0 |
| 20260905175650 | 26 | 20 | 0.0 | 3.2 | 0.00 | 0.00 | 0.00 | 76 | 1016.0 |
| 20260905175145 | 26 | 48 | 0.0 | 3.2 | 0.00 | 0.00 | 0.00 | 76 | 1015.9 |
| 20260905174641 | 26 | 19 | 0.0 | 3.2 | 0.00 | 0.00 | 0.00 | 77 | 1016.0 |
| 20260905174136 | 25 | 2 | 0.0 | 4.8 | 0.00 | 0.00 | 0.00 | 78 | 1015.9 |
| 20260905173632 | 25 | 26 | 0.0 | 4.8 | 0.00 | 0.00 | 0.00 | 77 | 1015.7 |
| 20260905173128 | 25 | 334 | 3.2 | 4.8 | 0.00 | 0.00 | 0.00 | 78 | 1016.0 |
| 20260905172626 | 25 | 14 | 1.6 | 3.2 | 0.00 | 0.00 | 0.00 | 79 | 1016.1 |
| 20260905172121 | 25 | 16 | 3.2 | 3.2 | 0.00 | 0.00 | 0.00 | 79 | 1015.9 |
| 20260905171618 | 25 | 27 | 3.2 | 4.8 | 0.00 | 0.00 | 0.00 | 78 | 1016.2 |
| 20260905171114 | 25 | 21 | 1.6 | 3.2 | 0.00 | 0.00 | 0.00 | 80 | 1016.1 |
| 20260905170610 | 25 | 15 | 3.2 | 3.2 | 0.00 | 0.00 | 0.00 | 78 | 1016.0 |
| 20260905170106 | 25 | 15 | 0.0 | 3.2 | 0.00 | 0.00 | 0.00 | 78 | 1015.9 |
| 20260905165605 | 25 | 349 | 1.6 | 3.2 | 0.00 | 0.00 | 0.00 | 81 | 1015.9 |
| 20260905165101 | 25 | 34 | 1.6 | 3.2 | 0.00 | 0.00 | 0.00 | 81 | 1016.0 |
| 20260905164555 | 25 | 2 | 1.6 | 4.8 | 0.00 | 0.00 | 0.00 | 81 | 1016.0 |
| 20260905164049 | 24 | 346 | 0.0 | 3.2 | 0.00 | 0.00 | 0.00 | 84 | 1016.2 |
| 20260905163546 | 24 | 329 | 0.0 | 3.2 | 0.00 | 0.00 | 0.00 | 83 | 1016.2 |
| 20260905163042 | 23 | 10 | 1.6 | 3.2 | 0.00 | 0.00 | 0.00 | 84 | 1016.0 |
| 20260905162538 | 23 | 16 | 0.0 | 3.2 | 0.00 | 0.00 | 0.00 | 85 | 1016.1 |
| 20260905162032 | 24 | 0 | 0.0 | 3.2 | 0.00 | 0.00 | 0.00 | 85 | 1016.0 |
| 20260905161532 | 23 | 3 | 1.6 | 3.2 | 0.00 | 0.00 | 0.00 | 84 | 1016.1 |
| 20260905161030 | 23 | 30 | 3.2 | 3.2 | 0.00 | 0.00 | 0.00 | 84 | 1016.1 |
| 20260905160528 | 23 | 356 | 1.6 | 3.2 | 0.00 | 0.00 | 0.00 | 85 | 1016.1 |
| 20260905160028 | 23 | 12 | 3.2 | 3.2 | 0.00 | 0.00 | 0.00 | 84 | 1016.0 |
| 20260905155528 | 23 | 9 | 1.6 | 3.2 | 0.00 | 0.00 | 0.00 | 85 | 1016.2 |
| 20260905155026 | 23 | 6 | 0.0 | 3.2 | 0.00 | 0.00 | 0.00 | 84 | 1016.2 |
| 20260905154522 | 23 | 304 | 1.6 | 3.2 | 0.00 | 0.00 | 0.00 | 84 | 1015.7 |
| 20260905154018 | 23 | 28 | 0.0 | 3.2 | 0.00 | 0.00 | 0.00 | 86 | 1015.6 |
| 20260905153514 | 23 | 7 | 1.6 | 4.8 | 0.00 | 0.00 | 0.00 | 86 | 1015.9 |
| 20260905153014 | 23 | 354 | 0.0 | 3.2 | 0.00 | 0.00 | 0.00 | 87 | 1016.0 |
| 20260905152513 | 22 | 2 | 0.0 | 3.2 | 0.00 | 0.00 | 0.00 | 89 | 1016.2 |
| 20260905152008 | 22 | 21 | 0.0 | 1.6 | 0.00 | 0.00 | 0.00 | 90 | 1016.0 |
| 20260905151504 | 22 | 40 | 0.0 | 1.6 | 0.00 | 0.00 | 0.00 | 90 | 1015.9 |
| 20260905150959 | 22 | 38 | 1.6 | 6.4 | 0.00 | 0.00 | 0.00 | 90 | 1016.0 |
| 20260905150454 | 22 | 343 | 0.0 | 4.8 | 0.00 | 0.00 | 0.00 | 92 | 1015.7 |
| 20260905145950 | 22 | 324 | 0.0 | 1.6 | 0.00 | 0.00 | 0.00 | 92 | 1015.6 |
| 20260905145445 | 22 | 339 | 3.2 | 3.2 | 0.00 | 0.00 | 0.00 | 92 | 1015.7 |
| 20260905144944 | 22 | 333 | 0.0 | 1.6 | 0.00 | 0.00 | 0.00 | 92 | 1015.5 |
| 20260905144440 | 22 | 0 | 0.0 | 3.2 | 0.00 | 0.00 | 0.00 | 92 | 1015.5 |
| 20260905143939 | 22 | 22 | 3.2 | 3.2 | 0.00 | 0.00 | 0.00 | 92 | 1015.4 |
| 20260905143438 | 22 | 354 | 1.6 | 3.2 | 0.00 | 0.00 | 0.00 | 92 | 1015.4 |
| 20260905142933 | 22 | 351 | 1.6 | 3.2 | 0.00 | 0.00 | 0.00 | 92 | 1015.3 |
| 20260905142432 | 22 | 352 | 3.2 | 3.2 | 0.00 | 0.00 | 0.00 | 92 | 1015.3 |
| 20260905141928 | 22 | 160 | 0.0 | 3.2 | 0.00 | 0.00 | 0.00 | 92 | 1015.1 |
| 20260905141428 | 22 | 341 | 3.2 | 4.8 | 0.00 | 0.00 | 0.00 | 93 | 1015.0 |
| 20260905140924 | 22 | 23 | 1.6 | 3.2 | 0.00 | 0.00 | 0.00 | 93 | 1014.9 |
| 20260905140419 | 22 | 19 | 1.6 | 1.6 | 0.00 | 0.00 | 0.00 | 93 | 1014.9 |
| 20260905135918 | 22 | 21 | 1.6 | 1.6 | 0.00 | 0.00 | 0.00 | 93 | 1014.9 |
| 20260905135414 | 22 | 156 | 0.0 | 3.2 | 0.00 | 0.00 | 0.00 | 93 | 1014.9 |
| 20260905134909 | 22 | 333 | 1.6 | 3.2 | 0.00 | 0.00 | 0.00 | 94 | 1015.1 |
| 20260905134408 | 22 | 12 | 0.0 | 1.6 | 0.00 | 0.00 | 0.00 | 94 | 1014.9 |
| 20260905133903 | 22 | 41 | 0.0 | 3.2 | 0.00 | 0.00 | 0.00 | 94 | 1015.0 |
| 20260905133357 | 22 | 9 | 3.2 | 3.2 | 0.00 | 0.00 | 0.00 | 95 | 1015.1 |
| 20260905132857 | 21 | 342 | 3.2 | 4.8 | 0.00 | 0.00 | 0.00 | 95 | 1014.9 |
| 20260905132352 | 21 | 12 | 1.6 | 3.2 | 0.00 | 0.00 | 0.00 | 95 | 1014.7 |
| 20260905131852 | 21 | 19 | 1.6 | 3.2 | 0.00 | 0.00 | 0.00 | 96 | 1015.0 |
| 20260905131348 | 21 | 340 | 1.6 | 1.6 | 0.00 | 0.00 | 0.00 | 97 | 1014.9 |